SHT4H EGLL-EGAC

Flight info

Callsign SHT4H
Flight time 0h 54m
Altitude 36000
Route ULTIB T420 TNT UL28 RODOL UM65 TENSO L603 BELOX DCT REMSI DCT NINEB M148 MAGEE
Aircraft A320/M-SDE3FGHIRWY/LB1

Departure

Time 2026-05-08 06:52
Airport London Heathrow Airport (EGLL)

Arrival

Time 2026-05-08 07:47
Airport George Best Belfast City Airport (EGAC)
Time Latitude Longitude Altitude Speed Heading
2026-05-08 06:33 51.47047 -0.47180 86 ft 0 kts 90°
2026-05-08 06:40 51.47047 -0.47207 91 ft 4 kts 96°
2026-05-08 06:40 51.47052 -0.47248 89 ft 4 kts 111°
2026-05-08 06:41 51.47064 -0.47287 90 ft 4 kts 126°
2026-05-08 06:41 51.47082 -0.47319 88 ft 4 kts 141°
2026-05-08 06:41 51.47104 -0.47343 86 ft 4 kts 157°
2026-05-08 06:41 51.47129 -0.47354 88 ft 3 kts 178°
2026-05-08 06:42 51.47133 -0.47355 88 ft 0 kts 180°
2026-05-08 06:44 51.47127 -0.47354 86 ft 4 kts 179°
2026-05-08 06:44 51.47077 -0.47353 86 ft 9 kts 179°
2026-05-08 06:45 51.47022 -0.47351 86 ft 2 kts 179°
2026-05-08 06:45 51.46999 -0.47351 86 ft 5 kts 179°
2026-05-08 06:45 51.46987 -0.47351 86 ft 2 kts 179°
2026-05-08 06:45 51.46962 -0.47350 86 ft 5 kts 179°
2026-05-08 06:46 51.46916 -0.47350 86 ft 8 kts 180°
2026-05-08 06:46 51.46851 -0.47351 86 ft 11 kts 180°
2026-05-08 06:46 51.46767 -0.47353 86 ft 13 kts 194°
2026-05-08 06:46 51.46745 -0.47487 86 ft 15 kts 270°
2026-05-08 06:47 51.46745 -0.47646 86 ft 15 kts 270°
2026-05-08 06:47 51.46744 -0.47835 86 ft 18 kts 270°
2026-05-08 06:47 51.46743 -0.48057 87 ft 21 kts 270°
2026-05-08 06:47 51.46742 -0.48279 86 ft 17 kts 269°
2026-05-08 06:48 51.46741 -0.48479 86 ft 18 kts 270°
2026-05-08 06:48 51.46741 -0.48691 86 ft 20 kts 267°
2026-05-08 06:48 51.46658 -0.48746 86 ft 14 kts 182°
2026-05-08 06:48 51.46602 -0.48765 89 ft 5 kts 198°
2026-05-08 06:49 51.46584 -0.48775 88 ft 2 kts 198°
2026-05-08 06:49 51.46553 -0.48789 88 ft 8 kts 195°
2026-05-08 06:49 51.46489 -0.48743 86 ft 12 kts 124°
2026-05-08 06:49 51.46478 -0.48665 86 ft 1 kts 89°
2026-05-08 06:50 51.46478 -0.48663 86 ft 0 kts 89°
2026-05-08 06:51 51.46478 -0.48642 86 ft 5 kts 89°
2026-05-08 06:51 51.46482 -0.48227 89 ft 74 kts 89°
2026-05-08 06:51 51.46483 -0.47060 88 ft 131 kts 90°
2026-05-08 06:52 51.46489 -0.45384 257 ft 160 kts 89°
2026-05-08 06:52 51.46492 -0.43606 913 ft 159 kts 89°
2026-05-08 06:52 51.46557 -0.41806 1556 ft 168 kts 81°
2026-05-08 06:52 51.47107 -0.40004 1900 ft 196 kts 54°
2026-05-08 06:53 51.48032 -0.38210 2268 ft 221 kts 53°
2026-05-08 06:53 51.49057 -0.36186 2751 ft 246 kts 53°
2026-05-08 06:53 51.50172 -0.33972 3481 ft 261 kts 53°
2026-05-08 06:53 51.51326 -0.31681 4480 ft 265 kts 53°
2026-05-08 06:54 51.52406 -0.29268 5443 ft 269 kts 64°
2026-05-08 06:54 51.53113 -0.26446 5876 ft 273 kts 68°
2026-05-08 06:54 51.54209 -0.23969 5996 ft 275 kts 41°
2026-05-08 06:54 51.55869 -0.22551 6006 ft 277 kts 14°
2026-05-08 06:55 51.57781 -0.22545 6015 ft 277 kts 346°
2026-05-08 06:55 51.59658 -0.23305 6031 ft 279 kts 347°
2026-05-08 06:55 51.61543 -0.24039 6043 ft 279 kts 341°
2026-05-08 06:55 51.63296 -0.25358 6044 ft 279 kts 330°
2026-05-08 06:56 51.65008 -0.26927 6705 ft 284 kts 329°
2026-05-08 06:56 51.66705 -0.28532 7744 ft 283 kts 328°
2026-05-08 06:56 51.68398 -0.30159 8726 ft 284 kts 327°
2026-05-08 06:56 51.70103 -0.31807 9694 ft 286 kts 327°
2026-05-08 06:57 51.71823 -0.33476 10458 ft 295 kts 326°
2026-05-08 06:57 51.73658 -0.35260 10747 ft 319 kts 327°
2026-05-08 06:57 51.75619 -0.37170 11050 ft 338 kts 327°
2026-05-08 06:57 51.77665 -0.39158 11652 ft 346 kts 327°
2026-05-08 06:58 51.79743 -0.41172 12364 ft 351 kts 327°
2026-05-08 06:58 51.81852 -0.43210 13066 ft 356 kts 327°
2026-05-08 06:58 51.83996 -0.45282 13766 ft 361 kts 327°
2026-05-08 06:58 51.86164 -0.47381 14411 ft 365 kts 327°
2026-05-08 06:59 51.88326 -0.49478 15030 ft 369 kts 327°
2026-05-08 06:59 51.90544 -0.51634 15653 ft 373 kts 327°
2026-05-08 06:59 51.92782 -0.53816 16254 ft 377 kts 327°
2026-05-08 06:59 51.95046 -0.56027 16873 ft 381 kts 327°
2026-05-08 07:00 51.97329 -0.58258 17490 ft 385 kts 327°
2026-05-08 07:00 51.99632 -0.60509 18098 ft 389 kts 327°
2026-05-08 07:00 52.01962 -0.62788 18693 ft 393 kts 327°
2026-05-08 07:00 52.04311 -0.65088 19267 ft 396 kts 327°
2026-05-08 07:01 52.06676 -0.67405 19888 ft 398 kts 327°
2026-05-08 07:01 52.09051 -0.69739 20496 ft 400 kts 327°
2026-05-08 07:01 52.11437 -0.72090 21083 ft 402 kts 327°
2026-05-08 07:01 52.13846 -0.74463 21633 ft 405 kts 327°
2026-05-08 07:02 52.16265 -0.76848 22181 ft 407 kts 327°
2026-05-08 07:02 52.18695 -0.79249 22705 ft 410 kts 327°
2026-05-08 07:02 52.21138 -0.81672 23235 ft 412 kts 327°
2026-05-08 07:02 52.23598 -0.84109 23740 ft 415 kts 327°
2026-05-08 07:03 52.26039 -0.86530 24156 ft 417 kts 327°
2026-05-08 07:03 52.28531 -0.89006 24597 ft 420 kts 327°
2026-05-08 07:03 52.31033 -0.91493 25017 ft 422 kts 326°
2026-05-08 07:03 52.33549 -0.93998 25432 ft 425 kts 326°
2026-05-08 07:04 52.36080 -0.96521 25839 ft 427 kts 326°
2026-05-08 07:04 52.38626 -0.99057 26238 ft 430 kts 326°
2026-05-08 07:04 52.41186 -1.01612 26688 ft 431 kts 327°
2026-05-08 07:04 52.43754 -1.04183 27103 ft 433 kts 327°
2026-05-08 07:05 52.46329 -1.06763 27525 ft 435 kts 327°
2026-05-08 07:05 52.48920 -1.09364 27942 ft 437 kts 327°
2026-05-08 07:05 52.51517 -1.11974 28355 ft 439 kts 327°
2026-05-08 07:05 52.54128 -1.14603 28758 ft 441 kts 327°
2026-05-08 07:06 52.56751 -1.17248 29147 ft 443 kts 327°
2026-05-08 07:06 52.59386 -1.19913 29537 ft 445 kts 326°
2026-05-08 07:06 52.62026 -1.22588 29917 ft 448 kts 327°
2026-05-08 07:06 52.64689 -1.25279 30306 ft 449 kts 327°
2026-05-08 07:07 52.67344 -1.27963 30802 ft 447 kts 327°
2026-05-08 07:07 52.69994 -1.30644 31314 ft 445 kts 326°
2026-05-08 07:07 52.72625 -1.33313 31833 ft 443 kts 326°
2026-05-08 07:07 52.75246 -1.35978 32425 ft 441 kts 326°
2026-05-08 07:08 52.77853 -1.38638 32948 ft 439 kts 326°
2026-05-08 07:08 52.80440 -1.41283 33481 ft 437 kts 326°
2026-05-08 07:08 52.82991 -1.43893 34008 ft 435 kts 326°
2026-05-08 07:08 52.85558 -1.46525 34451 ft 434 kts 326°
2026-05-08 07:09 52.88120 -1.49158 34845 ft 433 kts 326°
2026-05-08 07:09 52.90680 -1.51793 35206 ft 433 kts 326°
2026-05-08 07:09 52.93235 -1.54428 35647 ft 431 kts 326°
2026-05-08 07:09 52.95779 -1.57053 35994 ft 431 kts 326°
2026-05-08 07:10 53.00896 -1.62333 36091 ft 433 kts 325°
2026-05-08 07:10 53.06008 -1.67623 36091 ft 433 kts 325°
2026-05-08 07:11 53.11083 -1.72896 36093 ft 433 kts 325°
2026-05-08 07:11 53.16192 -1.78222 36096 ft 433 kts 325°
2026-05-08 07:12 53.21296 -1.83556 36093 ft 433 kts 325°
2026-05-08 07:12 53.26424 -1.88832 36102 ft 434 kts 327°
2026-05-08 07:13 53.31695 -1.93808 36095 ft 435 kts 328°
2026-05-08 07:13 53.37000 -1.98699 36093 ft 435 kts 328°
2026-05-08 07:14 53.42245 -2.03646 36095 ft 435 kts 327°
2026-05-08 07:14 53.47496 -2.08669 36112 ft 434 kts 327°
2026-05-08 07:15 53.52743 -2.13702 36127 ft 433 kts 327°
2026-05-08 07:15 53.57735 -2.19245 36111 ft 427 kts 315°
2026-05-08 07:16 53.60856 -2.25574 36107 ft 421 kts 299°
2026-05-08 07:16 53.63221 -2.34548 36100 ft 419 kts 290°
2026-05-08 07:17 53.65332 -2.43712 36097 ft 419 kts 290°
2026-05-08 07:17 53.67436 -2.52901 36094 ft 419 kts 290°
2026-05-08 07:18 53.69520 -2.62093 36104 ft 419 kts 289°
2026-05-08 07:18 53.71580 -2.71232 36125 ft 418 kts 289°
2026-05-08 07:19 53.73634 -2.80386 36118 ft 417 kts 289°
2026-05-08 07:19 53.75690 -2.89534 36110 ft 416 kts 289°
2026-05-08 07:20 53.77738 -2.98688 36107 ft 416 kts 289°
2026-05-08 07:20 53.79769 -3.07836 36104 ft 415 kts 289°
2026-05-08 07:21 53.81797 -3.16994 36111 ft 415 kts 288°
2026-05-08 07:21 53.83808 -3.26143 36108 ft 414 kts 288°
2026-05-08 07:22 53.85815 -3.35301 36104 ft 414 kts 288°
2026-05-08 07:22 53.87793 -3.44395 36101 ft 414 kts 288°
2026-05-08 07:23 53.89786 -3.53548 36097 ft 413 kts 288°
2026-05-08 07:23 53.91768 -3.62703 36092 ft 413 kts 288°
2026-05-08 07:24 53.93737 -3.71858 36100 ft 412 kts 288°
2026-05-08 07:24 53.95702 -3.81012 36105 ft 412 kts 289°
2026-05-08 07:25 53.96954 -3.85419 35588 ft 417 kts 296°
2026-05-08 07:25 53.98404 -3.89744 34682 ft 424 kts 297°
2026-05-08 07:25 54.01360 -3.98398 33230 ft 422 kts 297°
2026-05-08 07:26 54.02833 -4.02723 32274 ft 425 kts 297°
2026-05-08 07:26 54.04313 -4.07099 31241 ft 429 kts 296°
2026-05-08 07:26 54.05806 -4.11540 30170 ft 435 kts 297°
2026-05-08 07:26 54.07472 -4.15805 29091 ft 440 kts 302°
2026-05-08 07:27 54.09248 -4.20070 28067 ft 441 kts 302°
2026-05-08 07:27 54.11021 -4.24343 27211 ft 439 kts 301°
2026-05-08 07:27 54.12780 -4.28594 26406 ft 435 kts 301°
2026-05-08 07:27 54.14519 -4.32802 25606 ft 432 kts 301°
2026-05-08 07:28 54.16222 -4.36931 24832 ft 429 kts 301°
2026-05-08 07:28 54.17932 -4.41080 24098 ft 427 kts 301°
2026-05-08 07:28 54.19654 -4.45266 23314 ft 424 kts 301°
2026-05-08 07:28 54.21344 -4.49383 22480 ft 421 kts 301°
2026-05-08 07:29 54.22989 -4.53394 21725 ft 416 kts 301°
2026-05-08 07:29 54.24645 -4.57433 20963 ft 412 kts 301°
2026-05-08 07:29 54.26278 -4.61429 20225 ft 408 kts 301°
2026-05-08 07:29 54.27894 -4.65394 19525 ft 405 kts 301°
2026-05-08 07:30 54.29494 -4.69333 18858 ft 401 kts 301°
2026-05-08 07:30 54.31078 -4.73242 18194 ft 398 kts 301°
2026-05-08 07:30 54.32653 -4.77130 17460 ft 395 kts 301°
2026-05-08 07:30 54.34207 -4.80973 16862 ft 391 kts 301°
2026-05-08 07:31 54.35735 -4.84755 16244 ft 386 kts 301°
2026-05-08 07:31 54.37260 -4.88531 15648 ft 381 kts 301°
2026-05-08 07:31 54.38757 -4.92246 15060 ft 376 kts 301°
2026-05-08 07:31 54.40233 -4.95920 14483 ft 372 kts 301°
2026-05-08 07:32 54.41692 -4.99559 13882 ft 367 kts 301°
2026-05-08 07:32 54.43133 -5.03151 13246 ft 363 kts 301°
2026-05-08 07:32 54.44554 -5.06694 12664 ft 358 kts 301°
2026-05-08 07:32 54.45964 -5.10189 12063 ft 353 kts 302°
2026-05-08 07:33 54.47358 -5.13632 11514 ft 349 kts 302°
2026-05-08 07:33 54.48739 -5.17037 10957 ft 345 kts 302°
2026-05-08 07:33 54.50107 -5.20372 10625 ft 336 kts 305°
2026-05-08 07:33 54.50836 -5.21853 10566 ft 330 kts 311°
2026-05-08 07:34 54.51905 -5.23567 10489 ft 322 kts 319°
2026-05-08 07:34 54.53641 -5.25907 10373 ft 310 kts 319°
2026-05-08 07:35 54.54339 -5.26846 10320 ft 306 kts 319°
2026-05-08 07:35 54.54668 -5.27289 10287 ft 304 kts 319°
2026-05-08 07:35 54.55287 -5.28123 10241 ft 299 kts 319°
2026-05-08 07:36 54.56647 -5.29963 10099 ft 293 kts 319°
2026-05-08 07:36 54.58230 -5.32117 9959 ft 286 kts 319°
2026-05-08 07:37 54.59806 -5.34276 9489 ft 294 kts 319°
2026-05-08 07:37 54.60764 -5.35590 9335 ft 292 kts 319°
2026-05-08 07:37 54.61971 -5.37240 9094 ft 289 kts 319°
2026-05-08 07:37 54.63546 -5.39392 8743 ft 287 kts 318°
2026-05-08 07:38 54.65107 -5.41530 8396 ft 286 kts 318°
2026-05-08 07:38 54.66659 -5.43656 8044 ft 284 kts 318°
2026-05-08 07:38 54.68219 -5.45795 7356 ft 294 kts 318°
2026-05-08 07:38 54.69865 -5.48057 6450 ft 311 kts 319°
2026-05-08 07:39 54.71747 -5.50079 5465 ft 325 kts 337°
2026-05-08 07:39 54.73960 -5.50724 4491 ft 323 kts
2026-05-08 07:39 54.76126 -5.49819 3558 ft 319 kts 22°
2026-05-08 07:39 54.78143 -5.48600 3159 ft 294 kts
2026-05-08 07:40 54.80033 -5.49094 3021 ft 264 kts 331°
2026-05-08 07:40 54.81348 -5.51020 3007 ft 235 kts 308°
2026-05-08 07:40 54.82116 -5.53372 2848 ft 217 kts 286°
2026-05-08 07:40 54.82246 -5.55848 2746 ft 199 kts 262°
2026-05-08 07:41 54.81823 -5.58054 2690 ft 191 kts 240°
2026-05-08 07:41 54.81035 -5.59815 2676 ft 177 kts 231°
2026-05-08 07:41 54.80271 -5.61401 2635 ft 172 kts 232°
2026-05-08 07:41 54.79500 -5.63010 2596 ft 174 kts 232°
2026-05-08 07:42 54.78727 -5.64622 2564 ft 174 kts 232°
2026-05-08 07:42 54.77960 -5.66218 2520 ft 174 kts 231°
2026-05-08 07:42 54.77185 -5.67833 2483 ft 174 kts 232°
2026-05-08 07:42 54.76405 -5.69442 2438 ft 174 kts 229°
2026-05-08 07:43 54.75486 -5.70821 2402 ft 176 kts 216°
2026-05-08 07:43 54.74481 -5.72024 2362 ft 176 kts 216°
2026-05-08 07:43 54.73478 -5.73231 2323 ft 176 kts 216°
2026-05-08 07:43 54.72477 -5.74435 2269 ft 175 kts 216°
2026-05-08 07:44 54.71475 -5.75643 2124 ft 175 kts 216°
2026-05-08 07:44 54.70478 -5.76843 2004 ft 174 kts 216°
2026-05-08 07:44 54.69495 -5.78028 1762 ft 170 kts 216°
2026-05-08 07:44 54.68526 -5.79194 1508 ft 169 kts 216°
2026-05-08 07:45 54.67561 -5.80354 1276 ft 168 kts 216°
2026-05-08 07:45 54.66603 -5.81505 1035 ft 167 kts 216°
2026-05-08 07:45 54.65647 -5.82651 805 ft 167 kts 215°
2026-05-08 07:45 54.64716 -5.83768 587 ft 165 kts 215°
2026-05-08 07:46 54.63806 -5.84856 354 ft 148 kts 215°
2026-05-08 07:46 54.62991 -5.85825 170 ft 138 kts 215°
2026-05-08 07:46 54.62218 -5.86760 30 ft 130 kts 216°
2026-05-08 07:46 54.61597 -5.87506 15 ft 84 kts 215°
2026-05-08 07:47 54.61260 -5.87913 15 ft 32 kts 214°
2026-05-08 07:47 54.61174 -5.88008 18 ft 8 kts 205°
2026-05-08 07:47 54.61121 -5.87987 19 ft 10 kts 126°
2026-05-08 07:47 54.61082 -5.87870 20 ft 12 kts 104°
2026-05-08 07:48 54.61129 -5.87749 18 ft 15 kts 36°
2026-05-08 07:48 54.61183 -5.87684 16 ft 0 kts 34°
2026-05-08 07:48 54.61194 -5.87672 16 ft 4 kts 34°
2026-05-08 07:48 54.61225 -5.87635 16 ft 7 kts 34°
2026-05-08 07:49 54.61269 -5.87583 18 ft 9 kts 34°
2026-05-08 07:49 54.61290 -5.87557 18 ft 3 kts 35°
2026-05-08 07:49 54.61295 -5.87552 19 ft 1 kts 35°
2026-05-08 07:49 54.61305 -5.87539 19 ft 3 kts 34°
2026-05-08 07:50 54.61331 -5.87509 20 ft 7 kts 34°
2026-05-08 07:50 54.61382 -5.87442 21 ft 11 kts 44°
2026-05-08 07:50 54.61442 -5.87330 21 ft 14 kts 32°
2026-05-08 07:50 54.61509 -5.87248 21 ft 5 kts 35°
2026-05-08 07:51 54.61529 -5.87225 21 ft 1 kts 34°
2026-05-08 07:51 54.61543 -5.87201 21 ft 4 kts 63°
2026-05-08 07:51 54.61542 -5.87185 21 ft 2 kts 95°
2026-05-08 07:51 54.61529 -5.87168 21 ft 3 kts 158°
2026-05-08 07:52 54.61520 -5.87161 21 ft 3 kts 155°
2026-05-08 07:52 54.61500 -5.87145 23 ft 1 kts 157°
2026-05-08 07:52 54.61499 -5.87145 23 ft 0 kts 157°